Year,Month,Day,Hour,Minute,Value (Times are PST for temperature in C)
2018,09,16,10,34,12.80
2018,09,16,10,35,12.70
2018,09,16,10,36,12.70
2018,09,16,10,37,12.70
2018,09,16,10,38,12.70
2018,09,16,10,39,12.70
2018,09,16,10,40,12.70
2018,09,16,10,41,12.80
2018,09,16,10,42,12.80
2018,09,16,10,43,12.80
2018,09,16,10,44,12.90
2018,09,16,10,45,12.90
2018,09,16,10,46,13.00
2018,09,16,10,47,13.00
2018,09,16,10,48,12.90
2018,09,16,10,49,12.90
2018,09,16,10,50,12.90
2018,09,16,10,51,13.00
2018,09,16,10,52,13.00
2018,09,16,10,53,13.10
2018,09,16,10,54,13.20
2018,09,16,10,55,13.30
2018,09,16,10,56,13.50
2018,09,16,10,57,13.50
2018,09,16,10,58,13.50
2018,09,16,10,59,13.50
2018,09,16,11,00,13.60
2018,09,16,11,01,13.60
2018,09,16,11,02,13.60
2018,09,16,11,03,13.60
2018,09,16,11,04,13.70
2018,09,16,11,05,13.70
2018,09,16,11,06,13.70
2018,09,16,11,07,13.80
2018,09,16,11,08,13.80
2018,09,16,11,09,13.80
2018,09,16,11,10,13.90
2018,09,16,11,11,13.90
2018,09,16,11,12,13.80
2018,09,16,11,13,13.90
2018,09,16,11,14,14.00
2018,09,16,11,15,14.10
2018,09,16,11,16,14.10
2018,09,16,11,17,14.10
2018,09,16,11,18,14.20
2018,09,16,11,19,14.20
2018,09,16,11,20,14.20
2018,09,16,11,21,14.20
2018,09,16,11,22,14.20
2018,09,16,11,23,14.20
2018,09,16,11,24,14.20
2018,09,16,11,25,14.20
2018,09,16,11,26,14.30
2018,09,16,11,27,14.40
2018,09,16,11,28,14.50
2018,09,16,11,29,14.50
2018,09,16,11,30,14.60
2018,09,16,11,31,14.70
2018,09,16,11,32,14.70
2018,09,16,11,33,14.80
2018,09,16,11,34,14.90
2018,09,16,11,35,15.00
2018,09,16,11,36,14.90
2018,09,16,11,37,14.80
2018,09,16,11,38,14.80
2018,09,16,11,39,14.80
2018,09,16,11,40,14.80
2018,09,16,11,41,14.90
2018,09,16,11,42,15.00
2018,09,16,11,43,15.10
2018,09,16,11,44,15.10
2018,09,16,11,45,15.10
2018,09,16,11,46,15.20
2018,09,16,11,47,15.20
2018,09,16,11,48,15.30
2018,09,16,11,49,15.30
2018,09,16,11,50,15.30
2018,09,16,11,51,15.30
2018,09,16,11,52,15.40
2018,09,16,11,53,15.50
2018,09,16,11,54,15.60
2018,09,16,11,55,15.80
2018,09,16,11,56,15.80
2018,09,16,11,57,15.80
2018,09,16,11,58,15.70
2018,09,16,11,59,15.60
2018,09,16,12,00,15.60
2018,09,16,12,01,15.60
2018,09,16,12,02,15.60
2018,09,16,12,03,15.60
2018,09,16,12,04,15.60
2018,09,16,12,05,15.60
2018,09,16,12,06,15.50
2018,09,16,12,07,15.50
2018,09,16,12,08,15.40
2018,09,16,12,09,15.40
2018,09,16,12,10,15.30
2018,09,16,12,11,15.30
2018,09,16,12,12,15.40
2018,09,16,12,13,15.30
2018,09,16,12,14,15.30
2018,09,16,12,15,15.30
2018,09,16,12,16,15.20
2018,09,16,12,17,15.20
2018,09,16,12,18,15.30
2018,09,16,12,19,15.20
2018,09,16,12,20,15.10
2018,09,16,12,21,15.10
2018,09,16,12,22,15.00
2018,09,16,12,23,14.90
2018,09,16,12,24,14.90
2018,09,16,12,25,14.80
2018,09,16,12,26,14.70
2018,09,16,12,27,14.70
2018,09,16,12,28,14.70
2018,09,16,12,29,14.70
2018,09,16,12,30,14.70
2018,09,16,12,31,14.70
2018,09,16,12,32,14.60
2018,09,16,12,33,14.60
2018,09,16,12,34,14.60
2018,09,16,12,35,14.60
2018,09,16,12,36,14.50
2018,09,16,12,37,14.50
2018,09,16,12,38,14.50
2018,09,16,12,39,14.50
2018,09,16,12,40,14.50
2018,09,16,12,41,14.50
2018,09,16,12,42,14.50
2018,09,16,12,43,14.50
2018,09,16,12,44,14.50
2018,09,16,12,45,14.50
2018,09,16,12,46,14.50
2018,09,16,12,47,14.50
2018,09,16,12,48,14.40
2018,09,16,12,49,14.20
2018,09,16,12,50,14.20
2018,09,16,12,51,14.20
2018,09,16,12,52,14.20
2018,09,16,12,53,14.20
2018,09,16,12,54,14.20
2018,09,16,12,55,14.20
2018,09,16,12,56,14.20
2018,09,16,12,57,14.20
2018,09,16,12,58,14.20
2018,09,16,12,59,14.20
2018,09,16,13,00,14.10
2018,09,16,13,01,14.10
2018,09,16,13,02,14.10
2018,09,16,13,03,14.10
2018,09,16,13,04,14.10
2018,09,16,13,05,14.10
2018,09,16,13,06,14.10
2018,09,16,13,07,14.00
2018,09,16,13,08,14.00
2018,09,16,13,09,14.00
2018,09,16,13,10,13.90
2018,09,16,13,11,13.90
2018,09,16,13,12,13.90
2018,09,16,13,13,13.90
2018,09,16,13,14,13.90
2018,09,16,13,15,14.00
2018,09,16,13,16,13.90
2018,09,16,13,17,14.00
2018,09,16,13,18,14.00
2018,09,16,13,19,14.00
2018,09,16,13,20,14.10
2018,09,16,13,21,14.10
2018,09,16,13,22,14.10
2018,09,16,13,23,14.10
2018,09,16,13,24,14.10
2018,09,16,13,25,14.20
2018,09,16,13,26,14.20
2018,09,16,13,27,14.20
2018,09,16,13,28,14.10
2018,09,16,13,29,14.00
2018,09,16,13,30,14.00
2018,09,16,13,31,13.90
2018,09,16,13,32,13.90
2018,09,16,13,33,13.80
2018,09,16,13,34,13.70
2018,09,16,13,35,13.70
2018,09,16,13,36,13.70
2018,09,16,13,37,13.70
2018,09,16,13,38,13.60
2018,09,16,13,39,13.60
2018,09,16,13,40,13.60
2018,09,16,13,41,13.60
2018,09,16,13,42,13.60
2018,09,16,13,43,13.60
2018,09,16,13,44,13.50
2018,09,16,13,45,13.50
2018,09,16,13,46,13.50
2018,09,16,13,47,13.50
2018,09,16,13,48,13.50
2018,09,16,13,49,13.50
2018,09,16,13,50,13.50
2018,09,16,13,51,13.50
2018,09,16,13,52,13.50
2018,09,16,13,53,13.50
2018,09,16,13,54,13.50
2018,09,16,13,55,13.50
2018,09,16,13,56,13.40
2018,09,16,13,57,13.30
2018,09,16,13,58,13.30
2018,09,16,13,59,13.30
2018,09,16,14,00,13.30
2018,09,16,14,01,13.30
2018,09,16,14,02,13.30
2018,09,16,14,03,13.40
2018,09,16,14,04,13.50
2018,09,16,14,05,13.50
2018,09,16,14,06,13.50
2018,09,16,14,07,13.60
2018,09,16,14,08,13.70
2018,09,16,14,09,13.70
2018,09,16,14,10,13.80
2018,09,16,14,11,13.80
2018,09,16,14,12,13.90
2018,09,16,14,13,14.00
2018,09,16,14,14,14.00
2018,09,16,14,15,14.10
2018,09,16,14,16,14.20
2018,09,16,14,17,14.20
2018,09,16,14,18,14.20
2018,09,16,14,19,14.20
2018,09,16,14,20,14.30
2018,09,16,14,21,14.40
2018,09,16,14,22,14.40
2018,09,16,14,23,14.50
2018,09,16,14,24,14.60
2018,09,16,14,25,14.70
2018,09,16,14,26,14.60
2018,09,16,14,27,14.60
2018,09,16,14,28,14.60
2018,09,16,14,29,14.60
2018,09,16,14,30,14.70
2018,09,16,14,31,14.70
2018,09,16,14,32,14.70
2018,09,16,14,33,14.70
2018,09,16,14,34,14.70
2018,09,16,14,35,14.60
2018,09,16,14,36,14.60
2018,09,16,14,37,14.70
2018,09,16,14,38,14.60
2018,09,16,14,39,14.60
2018,09,16,14,40,14.60
2018,09,16,14,41,14.70
2018,09,16,14,42,14.70
2018,09,16,14,43,14.80
2018,09,16,14,44,14.80
2018,09,16,14,45,14.80
2018,09,16,14,46,14.80
2018,09,16,14,47,14.80
2018,09,16,14,48,14.90
2018,09,16,14,49,15.00
2018,09,16,14,50,15.10
2018,09,16,14,51,15.10
2018,09,16,14,52,15.20
2018,09,16,14,53,15.30
2018,09,16,14,54,15.30
2018,09,16,14,55,15.30
2018,09,16,14,56,15.30
2018,09,16,14,57,15.40
2018,09,16,14,58,15.50
2018,09,16,14,59,15.50
2018,09,16,15,00,15.50
2018,09,16,15,01,15.40
2018,09,16,15,02,15.30
2018,09,16,15,03,15.40
2018,09,16,15,04,15.40
2018,09,16,15,05,15.50
2018,09,16,15,06,15.50
2018,09,16,15,07,15.50
2018,09,16,15,08,15.60
2018,09,16,15,09,15.60
2018,09,16,15,10,15.60
2018,09,16,15,11,15.60
2018,09,16,15,12,15.60
2018,09,16,15,13,15.60
2018,09,16,15,14,15.60
2018,09,16,15,15,15.50
2018,09,16,15,16,15.50
2018,09,16,15,17,15.50
2018,09,16,15,18,15.50
2018,09,16,15,19,15.60
2018,09,16,15,20,15.60
2018,09,16,15,21,15.60
2018,09,16,15,22,15.70
2018,09,16,15,23,15.80
2018,09,16,15,24,15.80
2018,09,16,15,25,15.80
2018,09,16,15,26,15.80
2018,09,16,15,27,15.80
2018,09,16,15,28,15.80
2018,09,16,15,29,15.80
2018,09,16,15,30,15.80
2018,09,16,15,31,15.80
2018,09,16,15,32,15.80
2018,09,16,15,33,15.80
2018,09,16,15,34,15.80
2018,09,16,15,35,15.80
2018,09,16,15,36,15.80
2018,09,16,15,37,15.80
2018,09,16,15,38,15.80
2018,09,16,15,39,15.80
2018,09,16,15,40,15.80
2018,09,16,15,41,15.80
2018,09,16,15,42,15.80
2018,09,16,15,43,15.80
2018,09,16,15,44,15.80
2018,09,16,15,45,15.80
2018,09,16,15,46,15.80
2018,09,16,15,47,15.80
2018,09,16,15,48,15.80
2018,09,16,15,49,15.80
2018,09,16,15,50,15.80
2018,09,16,15,51,15.90
2018,09,16,15,52,15.90
2018,09,16,15,53,15.90
2018,09,16,15,54,15.90
2018,09,16,15,55,15.90
2018,09,16,15,56,15.80
2018,09,16,15,57,15.80
2018,09,16,15,58,15.80
2018,09,16,15,59,15.80
2018,09,16,16,00,15.80
2018,09,16,16,01,15.80
2018,09,16,16,02,15.80
2018,09,16,16,03,15.80
2018,09,16,16,04,15.80
2018,09,16,16,05,15.80
2018,09,16,16,06,15.80
2018,09,16,16,07,15.80
2018,09,16,16,08,15.80
2018,09,16,16,09,15.70
2018,09,16,16,10,15.70
2018,09,16,16,11,15.70
2018,09,16,16,12,15.70
2018,09,16,16,13,15.70
2018,09,16,16,14,15.70
2018,09,16,16,15,15.70
2018,09,16,16,16,15.70
2018,09,16,16,17,15.60
2018,09,16,16,18,15.60
2018,09,16,16,19,15.60
2018,09,16,16,20,15.60
2018,09,16,16,21,15.60
2018,09,16,16,22,15.60
2018,09,16,16,23,15.60
2018,09,16,16,24,15.60
2018,09,16,16,25,15.50
2018,09,16,16,26,15.50
2018,09,16,16,27,15.50
2018,09,16,16,28,15.50
2018,09,16,16,29,15.50
2018,09,16,16,30,15.50
2018,09,16,16,31,15.60
2018,09,16,16,32,15.60
2018,09,16,16,33,15.70
2018,09,16,16,34,15.70
2018,09,16,16,35,15.70
2018,09,16,16,36,15.70
2018,09,16,16,37,15.70
2018,09,16,16,38,15.60
2018,09,16,16,39,15.60
2018,09,16,16,40,15.60
2018,09,16,16,41,15.60
2018,09,16,16,42,15.60
2018,09,16,16,43,15.60
2018,09,16,16,44,15.60
2018,09,16,16,45,15.60
2018,09,16,16,46,15.70
2018,09,16,16,47,15.70
2018,09,16,16,48,15.80
2018,09,16,16,49,15.80
2018,09,16,16,50,15.80
2018,09,16,16,51,15.80
2018,09,16,16,52,15.80
2018,09,16,16,53,15.80
2018,09,16,16,54,15.80
2018,09,16,16,55,15.80
2018,09,16,16,56,15.80
2018,09,16,16,57,15.90
2018,09,16,16,58,15.90
2018,09,16,16,59,15.90
2018,09,16,17,00,15.90
2018,09,16,17,01,16.00
2018,09,16,17,02,16.10
2018,09,16,17,03,16.10
2018,09,16,17,04,15.90
2018,09,16,17,05,15.90
2018,09,16,17,06,15.90
2018,09,16,17,07,15.90
2018,09,16,17,08,15.90
2018,09,16,17,09,15.90
2018,09,16,17,10,15.90
2018,09,16,17,11,15.90
2018,09,16,17,12,15.90
2018,09,16,17,13,15.90
2018,09,16,17,14,15.80
2018,09,16,17,15,15.80
2018,09,16,17,16,15.70
2018,09,16,17,17,15.70
2018,09,16,17,18,15.60
2018,09,16,17,19,15.60
2018,09,16,17,20,15.60
2018,09,16,17,21,15.60
2018,09,16,17,22,15.60
2018,09,16,17,23,15.60
2018,09,16,17,24,15.50
2018,09,16,17,25,15.50
2018,09,16,17,26,15.50
2018,09,16,17,27,15.50
2018,09,16,17,28,15.50
2018,09,16,17,29,15.60
2018,09,16,17,30,15.60
2018,09,16,17,31,15.60
2018,09,16,17,32,15.50
2018,09,16,17,33,15.50
2018,09,16,17,34,15.50
2018,09,16,17,35,15.40
2018,09,16,17,36,15.40
2018,09,16,17,37,15.50
2018,09,16,17,38,15.50
2018,09,16,17,39,15.50
2018,09,16,17,40,15.50
2018,09,16,17,41,15.50
2018,09,16,17,42,15.50
2018,09,16,17,43,15.50
2018,09,16,17,44,15.50
2018,09,16,17,45,15.50
2018,09,16,17,46,15.50
2018,09,16,17,47,15.50
2018,09,16,17,48,15.50
2018,09,16,17,49,15.50
2018,09,16,17,50,15.40
2018,09,16,17,51,15.40
2018,09,16,17,52,15.30
2018,09,16,17,53,15.30
2018,09,16,17,54,15.30
2018,09,16,17,55,15.30
2018,09,16,17,56,15.30
2018,09,16,17,57,15.30
2018,09,16,17,58,15.30
2018,09,16,17,59,15.30
2018,09,16,18,00,15.30
2018,09,16,18,01,15.30
2018,09,16,18,02,15.30
